{"data":{"norad_id":56808,"epoch":"2026-05-25T02:35:31.333920Z","epoch_age_seconds":79778,"freshness":"FRESH","line1":"1 56808U 23078AT  26145.10800155  .00000198  00000+0  24423-4 0  9991","line2":"2 56808  69.9998  81.8621 0002862 265.4187  94.6645 14.98330579165865","mean_motion":14.98330579,"eccentricity":0.0002862,"inclination_deg":69.9998,"raan_deg":81.8621,"arg_perigee_deg":265.4187,"mean_anomaly_deg":94.6645,"bstar":2.4423e-5,"rev_number":16586,"period_min":96.106961987058,"perigee_km":570.06495574231,"apogee_km":574.0432451282,"semimajor_km":6950.1911004353,"source":"CELESTRAK","updated_at":"2026-05-25T13:38:18.159746Z"}}